Flag for Brazil

Past Weather in São José do Rio Preto, São Paulo, Brazil — Yesterday and Last 2 Weeks

Now
90 °F

Passing clouds.


Feels Like: 90 °F
Forecast: N/A
Wind: 10 mph from Southeast

Location: Leite Lopes / Ribeir

Current Time: Oct 19, 2019 at 7:25:06 pm

Latest Report: Oct 19, 2019 at 6:00 pm


Visibility: N/A

Pressure: 29.86 "Hg (28.22 "Hg at 503m altitude)

Humidity: 38%

Dew Point: 61 °F

Location of São José do Rio PretoLocation

Past Weather in São José do Rio Preto — Graph

°F

São José do Rio Preto Temperature Yesterday

Maximum temperature yesterday: 97 °F (at 2:00 pm)
Minimum temperature yesterday: 73 °F (at 5:00 am)
Average temperature yesterday: 86 °F

High & Low Weather Summary for the Past Weeks

 TemperatureHumidityPressure
High97 °F (Oct 5, 2:00 pm)100% (Oct 9, 4:00 am)30.07 "Hg (Oct 9, 4:00 am)
Low64 °F (Oct 11, 6:00 am)18% (Oct 4, 6:00 pm)29.80 "Hg (Oct 5, 4:00 pm)
Average80 °F57%29.97 "Hg
* Reported Oct 4 6:00 pm — Oct 19 6:00 pm, São José do Rio Preto. Weather by CustomWeather, © 2019

Note: Actual official high and low records may vary slightly from our data, if they occured in-between our weather recording intervals... More about our weather records

Advertising

São José do Rio Preto Weather History for the Previous 24 Hours

Scroll right to see more
 ConditionsComfort  
Time TempWeatherWind HumidityBarometerVisibility
6:00 pm
Sat, Oct 19
90 °FPassing clouds.10 mph38%29.86 "HgN/A
5:00 pm95 °FScattered clouds.9 mph26%29.86 "HgN/A
4:00 pm95 °FPartly sunny.7 mph25%29.86 "HgN/A
3:00 pm95 °FPartly sunny.7 mph25%29.86 "HgN/A
2:00 pm97 °FPassing clouds.No wind27%29.89 "HgN/A
1:00 pm91 °FSunny.5 mph34%29.92 "Hg10 mi
12:00 pm90 °FSunny.8 mph38%29.95 "Hg10 mi
11:00 am82 °FSunny.8 mph48%29.98 "Hg10 mi
10:00 am79 °FSunny.9 mph58%30.01 "Hg10 mi
9:00 am73 °FSunny.12 mph74%30.04 "Hg10 mi
8:00 am73 °FSunny.15 mph69%30.07 "Hg10 mi
7:00 am73 °FSunny.12 mph69%30.07 "Hg10 mi
6:00 am72 °FSunny.16 mph73%30.04 "Hg10 mi
5:00 am75 °FPassing clouds.13 mph69%30.01 "HgN/A
4:00 am77 °FPassing clouds.15 mph61%29.95 "HgN/A
3:00 am79 °FPassing clouds.12 mph54%29.95 "HgN/A
2:00 am81 °FClear.3 mph48%29.92 "Hg10 mi
1:00 am77 °FClear.5 mph57%29.92 "Hg10 mi
12:00 am81 °FClear.7 mph48%29.95 "Hg10 mi
11:00 pm
Fri, Oct 18
82 °FClear.7 mph42%29.95 "Hg10 mi
10:00 pm82 °FClear.5 mph42%29.95 "Hg10 mi
9:00 pm84 °FClear.3 mph40%29.95 "Hg10 mi
8:00 pm86 °FClear.5 mph35%29.92 "Hg10 mi
7:00 pm90 °FClear.5 mph31%29.89 "Hg10 mi
Weather by CustomWeather, © 2019

See weather overview